Dades meteomassalio
Diari Summary for Juny 1, 2017 Units:  English    Metric   Both
« Previous Day
Next Day »
Diari Semanal Mensual Anual Personalitzat
  Maxima: Minima: Mijana:
Temperatura: TemperatureC °F 12.4 °F 22.2 °F
Rosada: DewpointC °F 9.3 °F 12.8 °F
Humitat: Humidity % 26 % 58 %
Velocitat del vent: WindSpeedKMH mph 0.0 mph 5.3 mph
Racha vent: WindSpeedGustKMH mph - -
Vent:- - SE
Pressio: PressurehPa in 1015.1 in -
Pluja: 0.0 in    
Historical Graphs
 
 
Tabular Data for Juny 1, 2017
Time Temperature Dew Point Pressure Wind Wind Speed Wind Gust Humidity Rainfall Rate (Hourly) solar Conditions
TemperatureC °F DewpointC °F PressurehPa in Calm     Humidity % HourlyPrecipMM in SolarRadiationWatts/m^2 W/m2 Conditions
00:03 20.3 °F 12.8 °F 1018.2 in Calm     62 % 0.0 in 0.0 W/m2 CLR
00:08 20.2 °F 12.9 °F 1018.2 in Calm     63 % 0.0 in 0.0 W/m2 CLR
00:13 20.1 °F 12.6 °F 1018.2 in Calm     62 % 0.0 in 0.0 W/m2 CLR
00:18 19.9 °F 12.4 °F 1018.2 in Calm     62 % 0.0 in 0.0 W/m2 CLR
00:23 19.7 °F 12.5 °F 1018.2 in Calm     63 % 0.0 in 0.0 W/m2 CLR
00:28 19.6 °F 12.6 °F 1018.5 in Calm     64 % 0.0 in 0.0 W/m2 CLR
00:33 19.6 °F 12.6 °F 1018.2 in Calm     64 % 0.0 in 0.0 W/m2 CLR
00:38 19.5 °F 12.5 °F 1018.5 in Calm     64 % 0.0 in 0.0 W/m2 CLR
00:43 19.3 °F 12.6 °F 1018.5 in Calm     65 % 0.0 in 0.0 W/m2 CLR
00:48 19.2 °F 12.5 °F 1018.5 in Calm     65 % 0.0 in 0.0 W/m2 CLR
00:53 19.2 °F 12.4 °F 1018.5 in Calm     65 % 0.0 in 0.0 W/m2 CLR
00:58 19.0 °F 12.5 °F 1018.5 in Calm     66 % 0.0 in 0.0 W/m2 CLR
01:03 18.8 °F 12.3 °F 1018.5 in Calm     66 % 0.0 in 0.0 W/m2 CLR
01:08 18.6 °F 11.9 °F 1018.5 in Calm     65 % 0.0 in 0.0 W/m2 CLR
01:13 18.6 °F 12.1 °F 1018.5 in Calm     66 % 0.0 in 0.0 W/m2 CLR
01:18 18.4 °F 11.9 °F 1018.5 in Calm     66 % 0.0 in 0.0 W/m2 CLR
01:23 18.3 °F 12.1 °F 1018.5 in Calm     67 % 0.0 in 0.0 W/m2 CLR
01:28 18.2 °F 11.9 °F 1018.5 in Calm     67 % 0.0 in 0.0 W/m2 CLR
01:33 18.1 °F 11.9 °F 1018.5 in Calm     67 % 0.0 in 0.0 W/m2 CLR
01:38 18.0 °F 11.8 °F 1018.5 in Calm     67 % 0.0 in 0.0 W/m2 CLR
01:43 17.8 °F 11.8 °F 1018.5 in Calm     68 % 0.0 in 0.0 W/m2 CLR
01:44 17.8 °F 11.8 °F 1018.8 in Calm     68 % 0.0 in 0.0 W/m2 CLR
01:49 17.6 °F 11.8 °F 1018.5 in Calm     69 % 0.0 in 0.0 W/m2 CLR
01:54 17.3 °F 11.6 °F 1018.5 in Calm     69 % 0.0 in 0.0 W/m2 CLR
01:59 17.1 °F 11.6 °F 1018.5 in Calm     70 % 0.0 in 0.0 W/m2 CLR
02:04 16.9 °F 11.6 °F 1018.5 in Calm     71 % 0.0 in 0.0 W/m2 CLR
02:09 16.7 °F 11.7 °F 1018.5 in Calm     72 % 0.0 in 0.0 W/m2 CLR
02:14 16.6 °F 11.7 °F 1018.5 in Calm     73 % 0.0 in 0.0 W/m2 CLR
02:19 16.4 °F 11.8 °F 1018.5 in Calm     74 % 0.0 in 0.0 W/m2 CLR
02:24 16.2 °F 11.8 °F 1018.5 in Calm     75 % 0.0 in 0.0 W/m2 CLR
02:29 16.1 °F 11.7 °F 1018.5 in Calm     75 % 0.0 in 0.0 W/m2 CLR
02:34 16.0 °F 11.6 °F 1018.5 in Calm     75 % 0.0 in 0.0 W/m2 CLR
02:39 15.9 °F 11.4 °F 1018.5 in Calm     75 % 0.0 in 0.0 W/m2 CLR
02:44 15.8 °F 11.2 °F 1018.5 in Calm     74 % 0.0 in 0.0 W/m2 CLR
02:49 15.6 °F 11.2 °F 1018.5 in Calm     75 % 0.0 in 0.0 W/m2 CLR
02:54 15.4 °F 11.2 °F 1018.5 in Calm     76 % 0.0 in 0.0 W/m2 CLR
02:59 15.4 °F 11.2 °F 1018.5 in Calm     76 % 0.0 in 0.0 W/m2 CLR
03:04 15.3 °F 11.3 °F 1018.5 in Calm     77 % 0.0 in 0.0 W/m2 CLR
03:09 15.2 °F 11.2 °F 1018.5 in Calm     77 % 0.0 in 0.0 W/m2 CLR
03:14 15.2 °F 11.3 °F 1018.5 in Calm     78 % 0.0 in 0.0 W/m2 CLR
03:19 15.2 °F 11.3 °F 1018.2 in Calm     78 % 0.0 in 0.0 W/m2 CLR
03:24 15.1 °F 11.3 °F 1018.2 in Calm     78 % 0.0 in 0.0 W/m2 CLR
03:29 15.0 °F 11.0 °F 1018.5 in Calm     77 % 0.0 in 0.0 W/m2 CLR
03:34 14.8 °F 10.8 °F 1018.5 in Calm     77 % 0.0 in 0.0 W/m2 CLR
03:39 14.7 °F 10.9 °F 1018.5 in Calm     78 % 0.0 in 0.0 W/m2 CLR
03:44 14.5 °F 10.9 °F 1018.5 in Calm     79 % 0.0 in 0.0 W/m2 CLR
03:49 14.4 °F 10.8 °F 1018.5 in Calm     79 % 0.0 in 0.0 W/m2 CLR
03:54 14.3 °F 10.7 °F 1018.5 in Calm     79 % 0.0 in 0.0 W/m2 CLR
03:59 14.2 °F 10.6 °F 1018.2 in Calm     79 % 0.0 in 0.0 W/m2 CLR
04:04 14.2 °F 10.8 °F 1018.2 in Calm     80 % 0.0 in 0.0 W/m2 CLR
04:09 14.2 °F 11.0 °F 1018.2 in Calm     81 % 0.0 in 0.0 W/m2 CLR
04:14 14.3 °F 11.1 °F 1018.2 in Calm     81 % 0.0 in 0.0 W/m2 CLR
04:19 14.2 °F 10.8 °F 1018.2 in Calm     80 % 0.0 in 0.0 W/m2 CLR
04:24 14.1 °F 10.7 °F 1018.2 in Calm     80 % 0.0 in 0.0 W/m2 CLR
04:29 14.0 °F 10.6 °F 1018.2 in Calm     80 % 0.0 in 0.0 W/m2 CLR
04:34 13.9 °F 10.5 °F 1018.2 in Calm     80 % 0.0 in 0.0 W/m2 CLR
04:39 13.8 °F 10.6 °F 1018.2 in Calm     81 % 0.0 in 0.0 W/m2 CLR
04:44 13.8 °F 10.6 °F 1018.2 in Calm     81 % 0.0 in 0.0 W/m2 CLR
04:49 13.6 °F 10.2 °F 1018.2 in Calm     80 % 0.0 in 0.0 W/m2 CLR
04:54 13.6 °F 10.3 °F 1018.2 in Calm     81 % 0.0 in 0.0 W/m2 CLR
04:59 13.5 °F 10.5 °F 1018.2 in Calm     82 % 0.0 in 0.0 W/m2 CLR
05:04 13.4 °F 10.4 °F 1018.2 in Calm     82 % 0.0 in 0.0 W/m2 CLR
05:09 13.4 °F 10.4 °F 1018.2 in Calm     82 % 0.0 in 0.0 W/m2 CLR
05:14 13.3 °F 10.3 °F 1018.2 in Calm     82 % 0.0 in 0.0 W/m2 CLR
05:19 13.1 °F 10.1 °F 1018.2 in Calm     82 % 0.0 in 0.0 W/m2 CLR
05:24 13.1 °F 10.2 °F 1018.2 in Calm     83 % 0.0 in 0.0 W/m2 CLR
05:29 12.9 °F 10.1 °F 1018.2 in Calm     83 % 0.0 in 0.0 W/m2 CLR
05:34 12.9 °F 10.1 °F 1018.2 in Calm     83 % 0.0 in 0.0 W/m2 CLR
05:39 12.8 °F 10.0 °F 1018.2 in Calm     83 % 0.0 in 0.0 W/m2 CLR
05:44 12.7 °F 10.1 °F 1018.2 in Calm     84 % 0.0 in 0.0 W/m2 CLR
05:49 12.7 °F 10.1 °F 1018.2 in Calm     84 % 0.0 in 0.0 W/m2 CLR
05:54 12.7 °F 10.3 °F 1018.2 in Calm     85 % 0.0 in 0.0 W/m2 CLR
05:59 12.7 °F 10.3 °F 1018.2 in Calm     85 % 0.0 in 0.0 W/m2 CLR
06:04 12.6 °F 10.0 °F 1018.2 in Calm     84 % 0.0 in 0.0 W/m2 CLR
06:09 12.6 °F 10.0 °F 1018.2 in Calm     84 % 0.0 in 0.0 W/m2 CLR
06:14 12.5 °F 9.9 °F 1018.2 in Calm     84 % 0.0 in 0.0 W/m2 CLR
06:19 12.4 °F 10.0 °F 1018.5 in Calm     85 % 0.0 in 0.0 W/m2 OVC
06:24 12.4 °F 10.0 °F 1018.5 in Calm     85 % 0.0 in 0.0 W/m2 OVC
06:29 12.4 °F 9.9 °F 1018.5 in Calm     85 % 0.0 in 0.0 W/m2 OVC
06:34 12.4 °F 10.2 °F 1018.5 in Calm     86 % 0.0 in 5.0 W/m2 OVC
06:39 12.5 °F 10.1 °F 1018.5 in Calm     85 % 0.0 in 7.0 W/m2 BKN
06:44 12.5 °F 10.2 °F 1018.5 in Calm     86 % 0.0 in 11.0 W/m2 BKN
06:49 12.6 °F 10.3 °F 1018.5 in Calm     86 % 0.0 in 14.0 W/m2 BKN
06:54 12.6 °F 10.3 °F 1018.5 in Calm     86 % 0.0 in 16.0 W/m2 BKN
06:59 12.7 °F 10.2 °F 1018.8 in Calm     85 % 0.0 in 19.0 W/m2 BKN
07:04 12.6 °F 10.2 °F 1018.8 in Calm     85 % 0.0 in 25.0 W/m2 BKN
07:09 12.7 °F 10.2 °F 1018.8 in Calm     85 % 0.0 in 32.0 W/m2 BKN
07:14 12.8 °F 10.3 °F 1018.8 in Calm     85 % 0.0 in 44.0 W/m2 BKN
07:19 12.9 °F 10.4 °F 1018.8 in Calm     85 % 0.0 in 54.0 W/m2 SCT
07:24 13.1 °F 10.7 °F 1019.2 in Calm     85 % 0.0 in 65.0 W/m2 SCT
07:29 13.4 °F 10.7 °F 1019.2 in Calm     84 % 0.0 in 76.0 W/m2 FEW
07:34 13.7 °F 10.8 °F 1019.2 in Calm     83 % 0.0 in 91.0 W/m2 FEW
07:40 13.9 °F 11.1 °F 1019.2 in Calm     83 % 0.0 in 100.0 W/m2 CLR
07:45 14.2 °F 11.2 °F 1019.2 in Calm     82 % 0.0 in 118.0 W/m2 CLR
07:50 14.6 °F 11.4 °F 1019.2 in Calm     81 % 0.0 in 134.0 W/m2 CLR
07:55 14.9 °F 11.3 °F 1019.2 in Calm     79 % 0.0 in 153.0 W/m2 CLR
08:00 15.2 °F 11.4 °F 1019.5 in Calm     78 % 0.0 in 169.0 W/m2 CLR
08:05 15.3 °F 11.5 °F 1019.2 in Calm     78 % 0.0 in 185.0 W/m2 CLR
08:10 15.6 °F 11.6 °F 1019.5 in Calm     77 % 0.0 in 200.0 W/m2 CLR
08:15 15.8 °F 11.8 °F 1019.2 in Calm     77 % 0.0 in 220.0 W/m2 CLR
08:20 16.1 °F 12.1 °F 1019.2 in Calm     77 % 0.0 in 236.0 W/m2 CLR
08:25 16.4 °F 12.2 °F 1019.2 in Calm     76 % 0.0 in 251.0 W/m2 CLR
08:30 16.9 °F 12.4 °F 1019.2 in Calm     75 % 0.0 in 265.0 W/m2 CLR
08:35 17.4 °F 12.5 °F 1019.2 in Calm     73 % 0.0 in 279.0 W/m2 CLR
08:40 17.9 °F 12.8 °F 1019.2 in Calm     72 % 0.0 in 299.0 W/m2 CLR
08:45 18.3 °F 13.0 °F 1019.2 in Calm     71 % 0.0 in 311.0 W/m2 CLR
08:50 18.8 °F 13.0 °F 1019.2 in Calm     69 % 0.0 in 329.0 W/m2 CLR
08:55 19.3 °F 13.3 °F 1019.2 in Calm     68 % 0.0 in 343.0 W/m2 CLR
08:56 19.4 °F 13.3 °F 1019.2 in Calm     68 % 0.0 in 346.0 W/m2 CLR
09:01 19.7 °F 13.4 °F 1019.2 in Calm     67 % 0.0 in 364.0 W/m2 CLR
09:06 20.0 °F 13.7 °F 1019.2 in Calm     67 % 0.0 in 380.0 W/m2 CLR
09:11 20.3 °F 13.7 °F 1019.2 in Calm     66 % 0.0 in 394.0 W/m2 CLR
09:16 20.7 °F 13.7 °F 1019.2 in Calm     64 % 0.0 in 410.0 W/m2 CLR
09:21 21.1 °F 13.7 °F 1019.2 in Calm     63 % 0.0 in 425.0 W/m2 CLR
09:26 21.3 °F 13.8 °F 1019.2 in Calm     62 % 0.0 in 439.0 W/m2 CLR
09:31 21.6 °F 13.9 °F 1019.2 in Calm     62 % 0.0 in 455.0 W/m2 CLR
09:36 21.7 °F 13.9 °F 1019.2 in Calm     61 % 0.0 in 471.0 W/m2 CLR
09:41 21.9 °F 14.0 °F 1019.2 in Calm     61 % 0.0 in 485.0 W/m2 CLR
09:46 21.9 °F 14.1 °F 1019.2 in Calm     61 % 0.0 in 501.0 W/m2 CLR
09:51 22.2 °F 14.1 °F 1019.2 in Calm     60 % 0.0 in 515.0 W/m2 CLR
09:56 22.5 °F 14.3 °F 1019.2 in Calm     60 % 0.0 in 531.0 W/m2 CLR
10:01 22.7 °F 14.3 °F 1019.2 in Calm     59 % 0.0 in 543.0 W/m2 CLR
10:06 22.8 °F 14.1 °F 1019.2 in ENE 5.6 mph 5.6 mph 58 % 0.0 in 557.0 W/m2 CLR
10:11 22.9 °F 14.2 °F 1019.2 in ENE 5.6 mph 5.6 mph 58 % 0.0 in 571.0 W/m2 CLR
10:16 23.2 °F 14.4 °F 1018.8 in ENE 5.6 mph 5.6 mph 58 % 0.0 in 585.0 W/m2 CLR
10:21 23.3 °F 14.1 °F 1018.8 in ENE 3.7 mph 3.7 mph 56 % 0.0 in 598.0 W/m2 CLR
10:26 23.4 °F 14.4 °F 1018.8 in ENE 7.4 mph 7.4 mph 57 % 0.0 in 615.0 W/m2 CLR
10:31 23.6 °F 14.3 °F 1018.8 in ENE 5.6 mph   56 % 0.0 in 629.0 W/m2 CLR
10:36 23.7 °F 14.4 °F 1018.8 in Calm     56 % 0.0 in 642.0 W/m2 CLR
10:41 24.1 °F 14.5 °F 1018.8 in Calm     55 % 0.0 in 652.0 W/m2 CLR
10:46 24.2 °F 14.3 °F 1018.8 in Calm     54 % 0.0 in 664.0 W/m2 CLR
10:51 24.3 °F 14.4 °F 1018.5 in ESE 3.7 mph   54 % 0.0 in 682.0 W/m2 CLR
10:56 24.4 °F 14.8 °F 1018.5 in ENE 4.8 mph 4.8 mph 55 % 0.0 in 693.0 W/m2 CLR
11:01 24.8 °F 14.9 °F 1018.5 in ENE 9.3 mph 9.3 mph 54 % 0.0 in 705.0 W/m2 CLR
11:06 24.9 °F 14.7 °F 1018.8 in ENE 5.6 mph 5.6 mph 53 % 0.0 in 719.0 W/m2 CLR
11:11 24.9 °F 14.7 °F 1018.5 in NNE 1.9 mph 1.9 mph 53 % 0.0 in 722.0 W/m2 CLR
11:16 24.9 °F 14.7 °F 1018.5 in Calm     53 % 0.0 in 768.0 W/m2 CLR
11:21 25.0 °F 14.4 °F 1018.5 in Calm     52 % 0.0 in 765.0 W/m2 CLR
11:26 25.1 °F 14.5 °F 1018.5 in Calm     52 % 0.0 in 777.0 W/m2 CLR
11:31 25.3 °F 14.4 °F 1018.5 in Calm     51 % 0.0 in 680.0 W/m2 CLR
11:36 25.4 °F 14.2 °F 1018.5 in Calm     50 % 0.0 in 780.0 W/m2 CLR
11:41 25.8 °F 14.3 °F 1018.5 in Calm     49 % 0.0 in 795.0 W/m2 CLR
11:46 26.3 °F 14.4 °F 1018.5 in ESE 3.7 mph 3.7 mph 48 % 0.0 in 802.0 W/m2 CLR
11:51 26.6 °F 14.4 °F 1018.5 in ENE 5.6 mph 5.6 mph 47 % 0.0 in 812.0 W/m2 CLR
11:56 26.6 °F 14.3 °F 1018.5 in ENE 7.4 mph 7.4 mph 47 % 0.0 in 821.0 W/m2 CLR
12:01 26.7 °F 14.4 °F 1018.5 in Calm     47 % 0.0 in 830.0 W/m2 CLR
12:06 26.8 °F 13.9 °F 1018.5 in Calm     45 % 0.0 in 842.0 W/m2 CLR
12:11 26.6 °F 13.7 °F 1018.5 in Calm     45 % 0.0 in 844.0 W/m2 CLR
12:16 26.9 °F 13.3 °F 1018.2 in ESE 5.6 mph 5.6 mph 43 % 0.0 in 858.0 W/m2 CLR
12:21 26.8 °F 13.2 °F 1018.2 in Calm     43 % 0.0 in 861.0 W/m2 CLR
12:26 26.9 °F 13.3 °F 1018.2 in Calm     43 % 0.0 in 868.0 W/m2 CLR
12:31 27.1 °F 13.1 °F 1018.2 in South 7.4 mph 7.4 mph 42 % 0.0 in 877.0 W/m2 CLR
12:37 27.1 °F 13.1 °F 1018.2 in Calm     42 % 0.0 in 877.0 W/m2 CLR
12:41 27.4 °F 13.8 °F 1018.2 in East 8.0 mph 8.0 mph 43 % 0.0 in 888.0 W/m2 CLR
12:46 27.8 °F 13.7 °F 1018.2 in ENE 5.6 mph 5.6 mph 42 % 0.0 in 898.0 W/m2 CLR
12:57 28.1 °F 13.2 °F 1017.8 in Calm     40 % 0.0 in 907.0 W/m2 CLR
13:02 28.2 °F 13.7 °F 1017.8 in Calm     41 % 0.0 in 914.0 W/m2 CLR
13:07 28.5 °F 13.9 °F 1017.8 in WNW 8.0 mph 8.0 mph 41 % 0.0 in 914.0 W/m2 CLR
13:12 28.8 °F 13.8 °F 1017.8 in NNW 1.6 mph   40 % 0.0 in 921.0 W/m2 CLR
13:17 28.8 °F 13.5 °F 1017.8 in NNE 5.6 mph 5.6 mph 39 % 0.0 in 930.0 W/m2 CLR
13:22 28.5 °F 13.6 °F 1017.8 in NNE 9.7 mph 9.7 mph 40 % 0.0 in 930.0 W/m2 CLR
13:27 28.3 °F 13.4 °F 1017.5 in NNE 5.6 mph   40 % 0.0 in 921.0 W/m2 CLR
13:32 28.5 °F 13.6 °F 1017.5 in Calm     40 % 0.0 in 933.0 W/m2 CLR
13:37 28.9 °F 13.6 °F 1017.5 in NNE 11.1 mph 11.1 mph 39 % 0.0 in 933.0 W/m2 CLR
13:42 29.3 °F 13.1 °F 1017.5 in SSE 7.4 mph 7.4 mph 37 % 0.0 in 940.0 W/m2 CLR
13:47 29.3 °F 11.8 °F 1017.5 in ENE 9.3 mph 9.3 mph 34 % 0.0 in 967.0 W/m2 CLR
13:52 29.2 °F 10.3 °F 1017.5 in Calm     31 % 0.0 in 898.0 W/m2 CLR
13:57 29.2 °F 9.3 °F 1017.2 in NE 11.1 mph 11.1 mph 29 % 0.0 in 898.0 W/m2 CLR
14:02 29.2 °F 11.2 °F 1017.2 in Calm     33 % 0.0 in 1000.0 W/m2 CLR
14:07 29.3 °F 10.9 °F 1017.2 in Calm     32 % 0.0 in 1011.0 W/m2 CLR
14:12 29.4 °F 11.4 °F 1017.2 in NE 14.8 mph 14.8 mph 33 % 0.0 in 1018.0 W/m2 CLR
14:17 29.7 °F 11.3 °F 1016.8 in NNE 16.7 mph 16.7 mph 32 % 0.0 in 1025.0 W/m2 CLR
14:22 29.8 °F 11.3 °F 1016.8 in NNE 16.7 mph 16.7 mph 32 % 0.0 in 970.0 W/m2 CLR
14:27 29.8 °F 11.3 °F 1016.8 in NNE 9.3 mph 9.3 mph 32 % 0.0 in 981.0 W/m2 CLR
14:32 29.8 °F 11.3 °F 1016.8 in Calm     32 % 0.0 in 937.0 W/m2 CLR
14:37 30.0 °F 11.5 °F 1016.8 in ENE 13.0 mph 13.0 mph 32 % 0.0 in 951.0 W/m2 CLR
14:42 30.2 °F 11.2 °F 1016.8 in NE 20.9 mph 20.9 mph 31 % 0.0 in 942.0 W/m2 CLR
14:47 29.7 °F 10.7 °F 1016.8 in Calm     31 % 0.0 in 664.0 W/m2 CLR
14:52 29.7 °F 10.8 °F 1016.8 in ENE 5.6 mph 5.6 mph 31 % 0.0 in 904.0 W/m2 CLR
14:57 29.9 °F 10.5 °F 1016.5 in ESE 1.9 mph 1.9 mph 30 % 0.0 in 1005.0 W/m2 CLR
15:02 30.0 °F 10.6 °F 1016.5 in East 7.4 mph 7.4 mph 30 % 0.0 in 1005.0 W/m2 CLR
15:07 30.2 °F 10.7 °F 1016.5 in East 7.4 mph 7.4 mph 30 % 0.0 in 710.0 W/m2 CLR
15:12 30.2 °F 10.7 °F 1016.5 in ENE 14.8 mph 14.8 mph 30 % 0.0 in 710.0 W/m2 CLR
15:17 29.8 °F 10.3 °F 1016.5 in Calm     30 % 0.0 in 926.0 W/m2 CLR
15:22 30.2 °F 10.7 °F 1016.1 in NE 7.4 mph 7.4 mph 30 % 0.0 in 926.0 W/m2 CLR
15:27 30.7 °F 10.7 °F 1016.1 in East 8.0 mph 8.0 mph 29 % 0.0 in 902.0 W/m2 CLR
15:32 30.7 °F 10.6 °F 1016.1 in NE 11.1 mph 11.1 mph 29 % 0.0 in 898.0 W/m2 CLR
15:37 30.9 °F 10.3 °F 1016.1 in ENE 14.8 mph 14.8 mph 28 % 0.0 in 912.0 W/m2 CLR
15:42 31.1 °F 9.8 °F 1016.1 in ENE 18.5 mph 18.5 mph 27 % 0.0 in 889.0 W/m2 CLR
15:47 30.9 °F 10.3 °F 1016.1 in East 11.1 mph 11.1 mph 28 % 0.0 in 884.0 W/m2 CLR
15:52 31.2 °F 10.6 °F 1016.1 in Calm     28 % 0.0 in 870.0 W/m2 CLR
15:57 31.5 °F 9.7 °F 1016.1 in East 5.6 mph 5.6 mph 26 % 0.0 in 854.0 W/m2 CLR
16:02 31.0 °F 9.8 °F 1015.8 in ESE 9.3 mph 9.3 mph 27 % 0.0 in 844.0 W/m2 CLR
16:07 31.2 °F 10.0 °F 1015.8 in ENE 7.4 mph 7.4 mph 27 % 0.0 in 846.0 W/m2 CLR
16:12 31.3 °F 11.2 °F 1015.8 in NNW 13.0 mph 13.0 mph 29 % 0.0 in 844.0 W/m2 CLR
16:17 31.4 °F 12.2 °F 1015.5 in ENE 11.1 mph 11.1 mph 31 % 0.0 in 837.0 W/m2 CLR
16:22 31.3 °F 12.1 °F 1015.5 in ENE 5.6 mph 5.6 mph 31 % 0.0 in 831.0 W/m2 CLR
16:27 30.8 °F 13.1 °F 1015.5 in SE 22.2 mph 22.2 mph 34 % 0.0 in 861.0 W/m2 CLR
16:32 30.1 °F 12.9 °F 1015.5 in SSE 7.4 mph 7.4 mph 35 % 0.0 in 872.0 W/m2 CLR
16:37 30.1 °F 12.9 °F 1015.5 in Calm     35 % 0.0 in 877.0 W/m2 CLR
16:42 30.2 °F 13.9 °F 1015.5 in ESE 24.1 mph 24.1 mph 37 % 0.0 in 241.0 W/m2 CLR
16:47 29.9 °F 13.2 °F 1015.5 in ESE 18.5 mph 18.5 mph 36 % 0.0 in 281.0 W/m2 CLR
16:52 29.1 °F 13.3 °F 1015.5 in SE 20.4 mph 20.4 mph 38 % 0.0 in 236.0 W/m2 CLR
16:57 29.1 °F 13.7 °F 1015.5 in South 24.1 mph 24.1 mph 39 % 0.0 in 853.0 W/m2 CLR
17:02 29.1 °F 13.7 °F 1015.5 in South 18.5 mph 18.5 mph 39 % 0.0 in 861.0 W/m2 CLR
17:07 29.4 °F 13.6 °F 1015.5 in SSE 27.8 mph 27.8 mph 38 % 0.0 in 802.0 W/m2 CLR
17:12 29.4 °F 14.0 °F 1015.5 in ESE 19.3 mph 19.3 mph 39 % 0.0 in 773.0 W/m2 CLR
17:17 29.4 °F 13.6 °F 1015.1 in SSE 18.5 mph 18.5 mph 38 % 0.0 in 742.0 W/m2 CLR
17:22 29.2 °F 13.8 °F 1015.1 in SE 24.1 mph 24.1 mph 39 % 0.0 in 744.0 W/m2 CLR
17:27 29.1 °F 13.7 °F 1015.1 in SE 18.5 mph 18.5 mph 39 % 0.0 in 503.0 W/m2 CLR
17:32 29.1 °F 14.5 °F 1015.1 in SW 18.5 mph 18.5 mph 41 % 0.0 in 738.0 W/m2 CLR
17:37 28.8 °F 14.3 °F 1015.1 in South 18.5 mph 18.5 mph 41 % 0.0 in 178.0 W/m2 CLR
17:42 28.7 °F 14.1 °F 1015.1 in South 31.5 mph 31.5 mph 41 % 0.0 in 636.0 W/m2 CLR
17:47 28.9 °F 14.4 °F 1015.1 in South 24.1 mph 24.1 mph 41 % 0.0 in 691.0 W/m2 CLR
17:52 28.9 °F 14.3 °F 1015.5 in South 24.1 mph 24.1 mph 41 % 0.0 in 608.0 W/m2 CLR
17:57 28.7 °F 14.2 °F 1015.5 in South 18.5 mph 18.5 mph 41 % 0.0 in 628.0 W/m2 CLR
18:02 28.7 °F 14.1 °F 1015.5 in South 29.6 mph 29.6 mph 41 % 0.0 in 599.0 W/m2 CLR
18:07 28.5 °F 13.9 °F 1015.5 in SSW 17.7 mph 17.7 mph 41 % 0.0 in 612.0 W/m2 CLR
18:12 28.7 °F 14.1 °F 1015.5 in South 18.5 mph 18.5 mph 41 % 0.0 in 596.0 W/m2 CLR
18:17 28.9 °F 14.4 °F 1015.5 in SSE 14.8 mph 14.8 mph 41 % 0.0 in 501.0 W/m2 CLR
18:22 29.3 °F 13.9 °F 1015.5 in SSW 11.1 mph 11.1 mph 39 % 0.0 in 455.0 W/m2 CLR
18:27 29.2 °F 13.8 °F 1015.1 in SSW 14.8 mph 14.8 mph 39 % 0.0 in 436.0 W/m2 CLR
18:32 29.1 °F 13.7 °F 1015.1 in South 20.4 mph 20.4 mph 39 % 0.0 in 424.0 W/m2 CLR
18:37 29.0 °F 13.7 °F 1015.1 in South 11.3 mph 11.3 mph 39 % 0.0 in 392.0 W/m2 CLR
18:42 28.9 °F 13.9 °F 1015.5 in South 16.7 mph 16.7 mph 40 % 0.0 in 438.0 W/m2 CLR
18:47 28.8 °F 13.4 °F 1015.1 in South 13.0 mph 13.0 mph 39 % 0.0 in 432.0 W/m2 CLR
18:52 28.8 °F 13.4 °F 1015.5 in SSE 16.1 mph 16.1 mph 39 % 0.0 in 341.0 W/m2 CLR
18:57 28.7 °F 13.4 °F 1015.5 in South 16.7 mph 16.7 mph 39 % 0.0 in 130.0 W/m2 CLR
19:02 28.7 °F 13.0 °F 1015.5 in Calm     38 % 0.0 in 135.0 W/m2 CLR
19:07 28.7 °F 13.4 °F 1015.5 in SSE 11.3 mph 11.3 mph 39 % 0.0 in 120.0 W/m2 CLR
19:12 28.7 °F 13.4 °F 1015.5 in SE 7.4 mph 7.4 mph 39 % 0.0 in 128.0 W/m2 CLR
19:17 28.6 °F 14.0 °F 1015.1 in ESE 12.9 mph 12.9 mph 41 % 0.0 in 121.0 W/m2 CLR
19:22 28.4 °F 13.6 °F 1015.1 in ESE 14.8 mph 14.8 mph 40 % 0.0 in 107.0 W/m2 CLR
19:27 28.3 °F 13.4 °F 1015.5 in ESE 16.7 mph 16.7 mph 40 % 0.0 in 107.0 W/m2 CLR
19:32 28.2 °F 14.1 °F 1015.5 in East 14.8 mph 14.8 mph 42 % 0.0 in 83.0 W/m2 CLR
19:37 28.0 °F 13.9 °F 1015.5 in East 14.8 mph 14.8 mph 42 % 0.0 in 47.0 W/m2 FEW
19:42 27.8 °F 13.7 °F 1015.5 in SE 16.7 mph 16.7 mph 42 % 0.0 in 47.0 W/m2 SCT
19:47 27.8 °F 13.7 °F 1015.5 in ESE 11.1 mph 11.1 mph 42 % 0.0 in 44.0 W/m2 SCT
19:53 27.7 °F 14.0 °F 1015.5 in SE 16.7 mph 16.7 mph 43 % 0.0 in 58.0 W/m2 SCT
19:58 27.5 °F 13.8 °F 1015.8 in South 18.5 mph 18.5 mph 43 % 0.0 in 79.0 W/m2 SCT
20:03 27.3 °F 13.9 °F 1015.8 in SE 20.9 mph 20.9 mph 44 % 0.0 in 74.0 W/m2 FEW
20:08 27.1 °F 14.2 °F 1015.5 in SSE 16.7 mph 16.7 mph 45 % 0.0 in 53.0 W/m2 FEW
20:13 26.9 °F 14.3 °F 1015.8 in ESE 11.3 mph 11.3 mph 46 % 0.0 in 40.0 W/m2 SCT
20:18 26.8 °F 14.2 °F 1015.8 in SE 11.1 mph 11.1 mph 46 % 0.0 in 30.0 W/m2 BKN
20:23 26.8 °F 14.5 °F 1015.8 in South 7.4 mph 7.4 mph 47 % 0.0 in 23.0 W/m2 BKN
20:28 26.8 °F 14.5 °F 1016.1 in SSW 11.3 mph 11.3 mph 47 % 0.0 in 19.0 W/m2 BKN
20:33 26.6 °F 14.7 °F 1016.1 in SW 14.8 mph 14.8 mph 48 % 0.0 in 12.0 W/m2 BKN
20:38 26.3 °F 14.8 °F 1016.5 in SSW 24.1 mph 24.1 mph 49 % 0.0 in 11.0 W/m2 BKN
20:43 25.4 °F 15.7 °F 1016.8 in West 35.2 mph 35.2 mph 55 % 0.0 in 12.0 W/m2 BKN
20:48 24.2 °F 16.5 °F 1016.8 in WSW 22.2 mph 22.2 mph 62 % 0.0 in 25.0 W/m2 BKN
20:53 23.6 °F 16.3 °F 1016.5 in SW 18.5 mph 18.5 mph 64 % 0.0 in 42.0 W/m2 BKN
20:58 23.3 °F 16.1 °F 1016.5 in WSW 11.1 mph 11.1 mph 64 % 0.0 in 33.0 W/m2 BKN
21:03 23.3 °F 16.1 °F 1016.5 in WSW 9.3 mph 9.3 mph 64 % 0.0 in 25.0 W/m2 BKN
21:08 23.2 °F 16.0 °F 1016.5 in West 11.1 mph 11.1 mph 64 % 0.0 in 16.0 W/m2 BKN
21:13 23.0 °F 16.1 °F 1016.5 in WSW 9.3 mph 9.3 mph 65 % 0.0 in 11.0 W/m2 BKN
21:18 22.9 °F 16.0 °F 1016.5 in West 9.3 mph 9.5 mph 65 % 0.0 in 5.0 W/m2 BKN
21:23 23.1 °F 15.9 °F 1016.5 in WSW 7.4 mph 7.4 mph 64 % 0.0 in 0.0 W/m2 OVC
21:28 23.1 °F 15.9 °F 1016.5 in WSW 5.6 mph   64 % 0.0 in 0.0 W/m2 OVC
21:33 23.2 °F 15.8 °F 1016.5 in Calm     63 % 0.0 in 0.0 W/m2 OVC
21:38 23.3 °F 15.6 °F 1016.5 in Calm     62 % 0.0 in 0.0 W/m2 CLR
21:43 23.5 °F 15.8 °F 1016.5 in South 16.7 mph 16.7 mph 62 % 0.0 in 0.0 W/m2 CLR
21:48 23.2 °F 15.8 °F 1016.1 in South 18.5 mph 18.5 mph 63 % 0.0 in 0.0 W/m2 CLR
21:53 23.1 °F 15.7 °F 1016.1 in SE 11.3 mph 11.3 mph 63 % 0.0 in 0.0 W/m2 CLR
21:58 23.0 °F 15.6 °F 1016.1 in SSE 14.8 mph 14.8 mph 63 % 0.0 in 0.0 W/m2 CLR
22:03 23.0 °F 15.8 °F 1016.5 in South 18.5 mph 18.5 mph 64 % 0.0 in 0.0 W/m2 CLR
22:08 22.7 °F 16.1 °F 1016.5 in South 18.5 mph 18.5 mph 66 % 0.0 in 0.0 W/m2 CLR
22:13 22.4 °F 16.0 °F 1016.5 in SSE 13.0 mph 13.0 mph 67 % 0.0 in 0.0 W/m2 CLR
22:18 22.3 °F 15.9 °F 1016.5 in South 9.3 mph 9.3 mph 67 % 0.0 in 0.0 W/m2 CLR
22:23 22.3 °F 15.4 °F 1016.5 in Calm     65 % 0.0 in 0.0 W/m2 CLR
22:28 22.3 °F 15.4 °F 1016.8 in Calm     65 % 0.0 in 0.0 W/m2 CLR
22:33 22.3 °F 15.4 °F 1016.8 in Calm     65 % 0.0 in 0.0 W/m2 CLR
22:38 22.2 °F 15.5 °F 1016.8 in Calm     66 % 0.0 in 0.0 W/m2 CLR
22:43 22.1 °F 15.7 °F 1016.8 in Calm     67 % 0.0 in 0.0 W/m2 CLR
22:48 22.0 °F 15.6 °F 1016.8 in Calm     67 % 0.0 in 0.0 W/m2 CLR
22:53 21.9 °F 15.6 °F 1016.8 in Calm     67 % 0.0 in 0.0 W/m2 CLR
22:58 21.9 °F 15.3 °F 1016.8 in WSW 5.6 mph 5.6 mph 66 % 0.0 in 0.0 W/m2 CLR
23:03 21.9 °F 15.1 °F 1016.8 in Calm     65 % 0.0 in 0.0 W/m2 CLR
23:08 21.9 °F 15.1 °F 1016.8 in Calm     65 % 0.0 in 0.0 W/m2 CLR
23:13 21.9 °F 15.0 °F 1016.8 in Calm     65 % 0.0 in 0.0 W/m2 CLR
23:18 21.8 °F 15.2 °F 1016.8 in Calm     66 % 0.0 in 0.0 W/m2 CLR
23:23 21.6 °F 15.2 °F 1016.8 in Calm     67 % 0.0 in 0.0 W/m2 CLR
23:28 21.4 °F 15.2 °F 1017.2 in Calm     68 % 0.0 in 0.0 W/m2 CLR
23:33 21.3 °F 15.2 °F 1017.2 in Calm     68 % 0.0 in 0.0 W/m2 CLR
23:38 21.4 °F 15.0 °F 1017.2 in Calm     67 % 0.0 in 0.0 W/m2 CLR
23:43 21.3 °F 15.2 °F 1016.8 in Calm     68 % 0.0 in 0.0 W/m2 CLR
23:44 21.3 °F 15.1 °F 1016.8 in Calm     68 % 0.0 in 0.0 W/m2 CLR
23:49 21.2 °F 15.0 °F 1016.8 in Calm     68 % 0.0 in 0.0 W/m2 CLR
23:54 21.1 °F 14.7 °F 1016.8 in SE 5.6 mph 5.6 mph 67 % 0.0 in 0.0 W/m2 CLR
23:59 21.0 °F 14.6 °F 1016.8 in Calm     67 % 0.0 in 0.0 W/m2 CLR
Lo Temps de Massalio
Compliments of Weather Underground - 1.25 mb